Location: Casa Rossa
(45.2389°N, 12.2056°E)
Time: 04:34:24
(UTC+00:00)

Cosmos 1833 Rocket - Pass Details

Date: 14 July 2020
Orbit: 832 x 840 km, 71.0° (Epoch: 11 August)

Event Time Altitude Azimuth Distance (km) Brightness Sun altitude
Exits shadow 02:26:39 11° 248° (WSW) 2,380 4.5 -10.5°
Maximum altitude 02:31:21 30° 308° (NW) 1,448 3.9 -9.9°
Drops below altitude 10° 02:36:17 10° 9° (N) 2,454 6.0 -9.3°
Sets 02:39:03 0° 20° (NNE) 3,394 7.1 -8.9°
